DateTimeUTC,F1_A11,F1_S11,BsB_S11,BsG_S11,BsR_S11,BbsB_S11,BbsG_S11,BbsR_S11,BaB_A11,BaG_A11,BaR_A11,Tu_S11,T_S11,Uu_S11,U_S11,P_S11,T1_A11
2021-09-27T04:00:00Z,00000200,21000000,,,,,,,0000.85,0000.59,0000.56,16.2,23.4,,00.0,0670.5,30.8
2021-09-27T04:01:00Z,00000200,21000000,,,,,,,0000.87,0000.85,0000.48,16.2,23.4,,00.0,0670.5,30.9
2021-09-27T04:02:00Z,00000200,21000000,,,,,,,0000.87,0000.66,0000.91,16.3,23.5,,00.0,0670.5,30.9
2021-09-27T04:03:00Z,00000200,61000000,,,,,,,0073.32,0067.90,0053.77,16.3,23.5,,00.0,0670.5,30.9
2021-09-27T04:04:00Z,00000200,41000000,0011.76,0008.99,0005.60,0002.31,0002.16,0001.54,0113.83,0105.42,0084.87,16.7,23.4,,00.0,0671.5,30.9
2021-09-27T04:05:00Z,00000200,01000000,0010.50,0007.47,0004.44,0002.49,0001.50,0001.12,0080.29,0074.25,0059.28,16.8,23.4,,00.0,0671.5,30.9
2021-09-27T04:06:00Z,00000200,01000000,0011.62,0008.41,0005.69,0002.03,0002.05,0001.42,0100.70,0093.38,0075.40,16.8,23.4,,00.0,0671.5,30.9
2021-09-27T04:07:00Z,00000200,01000000,0008.85,0006.50,0004.64,0001.53,0001.39,0001.01,0075.57,0070.39,0056.40,16.7,23.3,,00.0,0671.5,30.9
2021-09-27T04:08:00Z,00000200,01000000,0009.79,0006.68,0004.33,0001.59,0001.66,0001.15,0080.36,0074.66,0060.05,16.6,23.3,,00.0,0671.5,30.8
2021-09-27T04:09:00Z,00000200,01000000,0007.08,0004.98,0003.44,0000.71,0001.00,0001.02,0050.15,0046.50,0037.64,16.6,23.3,,00.0,0671.4,30.8
2021-09-27T04:10:00Z,00000200,01000000,0007.32,0004.53,0002.73,0000.37,0000.98,0000.66,0040.61,0037.62,0030.33,16.5,23.3,,00.0,0671.4,30.8
2021-09-27T04:11:00Z,00000200,01000000,0005.08,0003.28,0001.87,0001.35,0000.68,0000.40,0017.70,0016.62,0013.01,16.5,23.2,,00.0,0671.4,30.8
2021-09-27T04:12:00Z,00000200,01000000,0004.60,0003.26,0001.74,0000.88,0000.36,0000.51,0014.20,0013.37,0010.76,16.5,23.2,,00.0,0671.4,30.8
2021-09-27T04:13:00Z,00000200,01000000,0004.13,0003.22,0001.43,0000.47,0000.51,0000.61,0010.32,0009.12,0007.73,16.6,23.2,,00.0,0671.4,30.8
2021-09-27T04:14:00Z,00000200,01000000,0004.35,0003.70,0002.27,0000.46,0000.81,0000.29,0019.34,0018.08,0013.73,16.6,23.2,,00.0,0671.4,30.8
2021-09-27T04:15:00Z,00000200,01000000,0005.28,0004.04,0002.46,0001.09,0000.78,0000.56,0028.83,0026.93,0022.03,16.7,23.2,,00.0,0671.4,30.8
2021-09-27T04:16:00Z,00000200,01000000,0005.16,0003.89,0002.63,0000.44,0001.02,0000.12,0029.70,0027.51,0022.12,16.7,23.3,,00.0,0671.4,30.9
2021-09-27T04:17:00Z,00000200,01000000,0005.71,0003.97,0002.32,0000.81,0000.61,0000.67,0029.91,0027.69,0022.25,16.8,23.3,,00.0,0671.5,30.9
2021-09-27T04:18:00Z,00000200,01000000,0005.49,0003.88,0002.37,0000.33,0000.71,0000.40,0028.98,0026.70,0021.63,16.8,23.3,,00.0,0671.5,30.9
2021-09-27T04:19:00Z,00000200,01000000,0004.22,0002.77,0001.79,-000.09,0000.49,0000.21,0011.42,0010.59,0008.66,16.8,23.3,,00.0,0671.4,30.9
2021-09-27T04:20:00Z,00000200,01000000,0003.52,0002.53,0001.54,0000.42,0000.62,0000.20,0003.33,0003.34,0001.98,16.8,23.3,,00.0,0671.4,30.9
2021-09-27T04:21:00Z,00000200,01000000,0003.72,0002.27,0001.23,0000.70,0000.50,0000.32,0001.42,0001.29,0001.21,16.7,23.3,,00.0,0671.4,30.8
2021-09-27T04:22:00Z,00000200,01000000,0002.85,0002.14,0001.54,0000.21,0000.24,0000.35,0001.81,0001.57,0001.55,16.6,23.3,,00.0,0671.4,30.8
2021-09-27T04:23:00Z,00000200,01000000,0003.17,0002.34,0001.49,0000.23,0000.36,0000.16,0001.39,0000.93,0000.66,16.6,23.2,,00.0,0671.4,30.8
2021-09-27T04:24:00Z,00000200,01000000,0003.18,0002.52,0001.65,0000.42,0000.67,0000.47,0002.43,0002.34,0001.37,16.5,23.2,,00.0,0671.4,30.8
2021-09-27T04:25:00Z,00000200,01000000,0003.71,0001.92,0001.44,0000.31,0000.22,0000.48,0001.42,0001.60,0001.34,16.5,23.2,,00.0,0671.4,30.8
2021-09-27T04:26:00Z,00000200,01000000,0002.63,0002.03,0000.94,0000.12,0000.40,-000.17,0002.43,0001.96,0001.84,16.4,23.1,,00.0,0671.4,30.8
2021-09-27T04:27:00Z,00000200,01000000,0003.45,0002.34,0001.38,0001.21,0000.64,0000.44,0006.99,0006.66,0005.31,16.4,23.1,,00.0,0671.5,30.8
2021-09-27T04:28:00Z,00000200,01000000,0005.29,0004.05,0002.14,0000.40,0000.55,0000.51,0023.85,0021.98,0017.49,16.4,23.1,,00.0,0671.5,30.8
2021-09-27T04:29:00Z,00000200,01000000,0006.06,0004.56,0003.09,0000.90,0000.90,0001.05,0041.21,0038.24,0031.12,16.5,23.1,,00.0,0671.5,30.8
2021-09-27T04:30:00Z,00000200,01000000,0004.56,0003.54,0002.10,0000.52,0001.04,0000.04,0027.54,0025.96,0020.47,16.6,23.2,,00.0,0671.5,30.8
2021-09-27T04:31:00Z,00000200,01000000,0004.18,0002.60,0001.75,0000.66,0000.48,0000.37,0012.31,0011.16,0008.67,16.7,23.2,,00.0,0671.5,30.8
2021-09-27T04:32:00Z,00000200,01000000,0003.03,0002.35,0001.31,0000.31,0000.44,0000.06,0003.94,0003.88,0003.87,16.7,23.2,,00.0,0671.5,30.9
2021-09-27T04:33:00Z,00000200,01000000,0003.26,0001.95,0001.39,0000.39,0000.67,0000.05,0001.92,0001.43,0001.17,16.7,23.2,,00.0,0671.5,30.9
2021-09-27T04:34:00Z,00000200,01000000,0002.87,0001.87,0001.19,0000.39,0000.31,0000.23,0001.26,0001.32,0000.68,16.7,23.2,,00.0,0671.5,30.8
2021-09-27T04:35:00Z,00000200,01000000,0004.02,0002.00,0001.02,0000.28,0000.39,0000.16,0000.65,0000.83,0000.66,16.7,23.2,,00.0,0671.5,30.8
2021-09-27T04:36:00Z,00000200,01000000,0003.62,0001.96,0000.87,0000.24,0000.39,0000.16,0001.02,0000.82,0000.78,16.6,23.2,,00.0,0671.5,30.8
2021-09-27T04:37:00Z,00000200,01000000,0002.66,0001.87,0001.12,0000.17,0000.48,0000.40,0001.34,0001.28,0000.43,16.5,23.2,,00.0,0671.5,30.8
2021-09-27T04:38:00Z,00000200,01000000,0002.48,0002.05,0001.17,0000.40,0000.14,0000.22,0001.57,0001.62,0001.29,16.5,23.1,,00.0,0671.5,30.8
2021-09-27T04:39:00Z,00000200,01000000,0002.73,0002.06,0001.26,0000.15,0000.56,0000.33,0001.99,0001.46,0001.64,16.4,23.1,,00.0,0671.4,30.8
2021-09-27T04:40:00Z,00000200,01000000,0003.21,0001.90,0001.26,0001.09,0000.40,0000.29,0004.34,0004.07,0002.92,16.3,23.1,,00.0,0671.4,30.8
2021-09-27T04:41:00Z,00000200,01000000,0003.26,0002.31,0001.04,0000.65,0000.37,0000.33,0004.61,0004.47,0003.58,16.3,23.0,,00.0,0671.4,30.8
2021-09-27T04:42:00Z,00000200,01000000,0002.96,0001.93,0000.97,0000.00,0000.49,0000.38,0003.78,0003.57,0002.99,16.3,23.0,,00.0,0671.5,30.8
2021-09-27T04:43:00Z,00000200,01000000,0003.27,0001.62,0000.80,0000.50,0000.50,0000.48,0003.06,0002.76,0002.01,16.4,23.0,,00.0,0671.5,30.8
2021-09-27T04:44:00Z,00000200,01000000,0003.09,0002.18,0000.88,-000.17,0000.46,0000.10,0004.80,0004.55,0003.84,16.4,23.0,,00.0,0671.5,30.8
2021-09-27T04:45:00Z,00000200,01000000,0005.67,0003.67,0002.29,0000.60,0000.84,0000.65,0035.06,0031.76,0025.39,16.5,23.1,,00.0,0671.5,30.8
2021-09-27T04:46:00Z,00000200,01000000,0005.66,0003.66,0002.17,0000.53,0000.70,0000.55,0034.18,0031.94,0025.93,16.6,23.1,,00.0,0671.5,30.8
2021-09-27T04:47:00Z,00000200,01000000,0004.09,0002.35,0001.46,0000.39,0000.53,0000.51,0018.86,0017.86,0014.24,16.6,23.1,,00.0,0671.5,30.9
2021-09-27T04:48:00Z,00000200,01000000,0003.13,0002.32,0001.43,0000.60,0000.49,0000.36,0012.60,0011.78,0009.15,16.7,23.1,,00.0,0671.5,30.9
2021-09-27T04:49:00Z,00000200,01000000,0002.86,0002.09,0001.13,0000.90,0000.18,0000.23,0009.17,0008.40,0006.87,16.7,23.2,,00.0,0671.5,30.9
2021-09-27T04:50:00Z,00000200,01000000,0003.30,0002.18,0000.97,0000.37,0000.46,0000.29,0014.02,0012.73,0010.35,16.7,23.2,,00.0,0671.5,30.8
2021-09-27T04:51:00Z,00000200,01000000,0004.78,0003.22,0001.39,0000.83,0001.01,0000.43,0027.63,0025.47,0020.60,16.6,23.2,,00.0,0671.5,30.8
2021-09-27T04:52:00Z,00000200,01000000,0004.02,0002.68,0001.47,0000.67,0000.74,0000.24,0017.31,0016.45,0013.02,16.6,23.1,,00.0,0671.4,30.8
2021-09-27T04:53:00Z,00000200,01000000,0003.07,0002.26,0001.23,-000.07,0000.63,0000.42,0012.97,0011.62,0009.24,16.5,23.1,,00.0,0671.4,30.8
2021-09-27T04:54:00Z,00000200,01000000,0003.42,0001.86,0001.10,-000.10,0000.50,0000.21,0004.70,0004.35,0003.71,16.4,23.1,,00.0,0671.4,30.8
2021-09-27T04:55:00Z,00000200,01000000,0002.78,0001.58,0000.70,0000.18,0000.09,-000.07,0001.32,0001.71,0001.22,16.4,23.0,,00.0,0671.4,30.8
2021-09-27T04:56:00Z,00000200,01000000,0002.50,0001.48,0001.03,0000.01,0000.50,0000.11,0001.62,0001.52,0000.96,16.3,23.0,,00.0,0671.4,30.8
2021-09-27T04:57:00Z,00000200,41000000,,,,,,,0001.19,0000.85,0001.40,16.4,23.0,,00.0,0671.4,30.8
2021-09-27T04:58:00Z,00000200,61000000,,,,,,,0000.42,0000.35,-000.07,16.1,23.2,,00.0,0670.4,30.8
2021-09-27T04:59:00Z,00000200,21000000,,,,,,,0000.53,0000.75,0000.83,16.1,23.3,,00.0,0670.4,30.8
